Lapse_Rate
5.2 5.5 3.4 2.3 1.9 1.6 1.6 1.9 1.7 1.4 1.6 1.3 1.3 1.5 1.1 1.4 1.6 2.0 1.9 1.6 1.4 1.0 0.6 0.0 -0.8 -1.0 -1.6 2.1 2.1 3.0 -0.1 -0.1 0.5 2.4 3.5 4.7 5.1 5.1 6.5 6.0 5.7 6.5 6.4 5.9 4.6 4.4 3.8
4.9 5.5 5.2 2.6 1.9 1.8 1.7 1.6 1.6 1.6 1.5 1.3 1.2 1.1 1.0 1.1 1.3 1.8 1.6 1.4 1.1 0.5 0.0 -0.6 -1.0 -0.9 -1.4 6.1 4.8 2.6 0.2 0.6 1.7 2.3 3.0 4.4 4.2 4.1 5.6 6.0 6.3 4.9 5.8 6.0 5.0 4.2 4.0
4.8 5.0 5.0 3.0 2.1 1.7 1.5 1.5 1.2 1.5 1.3 1.3 0.9 1.1 0.7 0.8 1.1 1.4 1.4 1.4 0.7 0.0 -0.6 -0.9 -1.3 -1.0 0.6 2.2 4.7 2.9 1.8 1.4 1.5 2.4 2.9 2.8 4.4 5.2 4.7 6.5 5.2 5.1 6.5 6.5 5.9 5.8 6.3
4.9 4.6 4.6 3.1 1.9 1.7 1.5 1.5 1.1 1.7 1.4 1.2 0.9 0.9 0.6 0.8 0.8 0.9 1.2 0.7 0.1 -0.6 -1.0 -1.3 -1.5 -0.8 2.0 3.6 3.5 2.8 1.3 3.9 2.7 1.7 3.6 5.0 3.5 5.2 6.4 5.2 4.7 6.5 6.5 6.5 6.5 6.3 5.7
4.7 4.3 4.2 3.2 2.1 1.8 1.7 1.5 1.1 1.4 1.2 1.1 0.9 0.7 0.4 0.5 0.9 0.8 0.4 -0.3 -0.6 -1.3 -1.4 -1.8 -2.0 -0.5 3.8 4.5 5.4 6.1 4.6 6.4 5.3 2.8 3.5 5.4 4.9 4.6 4.8 6.5 6.5 6.5 6.5 6.5 6.5 6.3 6.5
4.5 4.3 3.8 2.8 2.1 1.9 1.8 1.7 1.3 1.4 0.8 0.8 0.5 0.5 0.5 0.5 0.5 0.3 -0.6 -0.8 -1.3 -1.4 -1.3 -0.6 0.3 3.2 3.5 6.2 5.4 6.0 6.1 6.0 5.9 5.2 5.1 4.2 2.2 6.5 6.5 6.5 6.5 6.5 6.5 6.5 6.5 6.5 6.5
4.5 4.4 4.1 2.9 2.2 2.0 1.9 1.8 1.6 1.1 0.6 0.6 0.7 0.3 0.2 0.3 -0.2 -0.5 -1.5 -1.6 -0.1 1.6 -0.0 3.3 5.0 4.8 4.7 4.7 4.7 5.9 5.7 5.9 4.7 3.3 6.5 4.9 6.5 6.5 6.5 6.5 6.5 6.5 6.5 6.5 6.5 6.5 6.5
4.3 4.4 4.1 3.3 2.5 2.1 2.1 2.0 1.3 0.6 0.5 0.5 0.3 0.2 0.3 -0.4 -0.9 -1.3 -1.7 -0.1 5.0 5.6 5.2 1.8 2.7 3.5 3.1 5.0 5.8 6.1 5.7 5.7 5.5 6.5 6.4 6.5 6.5 6.5 6.5 6.5 6.5 6.5 6.5 6.5 6.5 6.5 6.5
4.3 4.2 3.8 3.2 2.8 2.3 2.0 1.8 1.1 0.5 0.4 0.3 0.1 0.1 0.2 -0.9 -0.7 -1.6 -2.6 1.5 3.8 5.1 5.4 5.2 3.3 4.1 5.6 5.0 5.6 6.0 5.8 5.2 6.4 6.5 6.5 6.5 6.5 6.5 6.5 6.5 6.5 6.5 6.5 6.5 6.5 6.5 6.5
4.3 4.0 3.6 3.2 2.9 2.4 1.9 1.5 0.8 0.4 0.3 0.1 -0.2 -0.1 0.1 -1.4 -0.9 -1.4 0.2 3.2 2.4 2.5 6.5 6.5 6.4 6.0 6.3 5.2 6.2 5.8 5.8 5.4 6.2 6.5 6.5 6.5 6.4 6.5 6.5 6.5 6.5 6.5 6.5 6.5 6.5 6.5 6.5
4.6 4.0 3.1 3.1 2.8 2.4 1.7 1.2 0.5 0.3 0.1 -0.2 -0.4 -0.3 -0.8 -0.6 -1.1 1.6 4.7 1.7 0.9 2.6 6.5 6.5 6.2 6.4 5.8 6.0 5.5 6.7 4.1 4.7 6.5 6.5 6.5 6.5 6.5 6.5 6.5 6.5 6.5 6.5 6.5 6.5 6.5 6.5 6.5
4.9 4.3 3.2 2.7 2.6 2.2 1.7 0.8 0.3 -0.1 -0.4 -0.4 -0.7 -0.6 -1.3 -2.0 -2.9 0.5 0.8 1.1 1.8 6.5 6.5 6.5 6.3 6.5 6.5 5.9 6.1 5.6 4.2 3.3 5.0 6.5 6.5 6.5 5.9 6.4 6.5 6.5 6.5 6.5 6.5 6.5 6.5 6.5 6.5
5.3 4.5 3.5 2.7 2.3 2.3 1.4 0.6 0.2 -0.4 -0.9 -0.7 -0.8 -1.3 -2.2 0.2 3.1 0.9 -0.6 0.9 6.5 6.5 6.5 6.5 6.5 6.5 6.5 6.5 6.5 6.4 6.5 6.5 6.5 6.5 6.5 6.5 6.5 6.4 6.3 6.5 6.5 6.5 6.5 6.5 6.5 6.5 6.5
5.3 4.7 3.6 2.8 2.4 2.1 1.4 0.6 -0.0 -0.8 -1.3 -0.8 -0.7 -1.7 -1.9 -1.2 0.3 -0.7 0.5 5.8 6.5 6.5 6.5 6.5 6.5 6.5 6.5 6.5 6.5 6.5 6.5 6.5 6.5 6.5 6.5 6.5 6.5 6.5 6.5 6.5 6.5 6.5 6.5 6.5 6.5 6.5 6.5
5.4 4.7 3.6 2.9 2.5 2.0 1.3 0.5 -0.5 -1.2 -1.5 -0.7 -1.4 -1.7 -1.2 0.2 -0.6 -1.1 0.7 6.5 6.5 6.5 6.5 6.5 6.5 6.5 6.5 6.5 6.5 6.5 6.5 6.5 6.5 6.5 6.5 6.5 6.5 6.5 6.5 6.5 6.5 6.5 6.5 6.5 6.5 6.5 6.5
5.2 4.5 3.4 2.8 2.3 1.9 1.4 0.3 -1.0 -1.3 -1.5 -1.3 -0.2 0.6 1.7 0.3 0.3 0.3 5.1 6.5 6.5 6.3 6.5 6.5 6.5 6.5 6.5 6.5 6.5 6.5 6.5 6.5 6.5 6.5 6.2 6.5 6.5 6.5 6.5 6.4 6.2 6.5 6.5 6.5 6.5 6.5 6.5
5.0 4.1 2.9 2.8 2.2 1.7 1.3 -0.8 -1.4 -1.3 -1.4 -0.8 2.1 3.0 2.1 -0.2 -0.3 0.3 6.5 6.5 6.5 5.1 5.9 6.5 6.5 6.5 6.5 6.5 6.5 6.5 6.5 6.5 6.5 6.5 6.2 6.5 6.5 6.5 6.5 6.5 6.5 6.5 6.5 6.5 6.5 6.5 6.5
4.5 3.8 2.9 2.3 1.9 1.7 0.0 -1.3 -1.6 -1.3 -0.7 -0.2 1.1 6.3 1.5 0.2 4.0 4.9 6.5 6.5 5.3 6.3 5.9 6.4 6.5 6.5 6.5 6.5 6.5 6.5 6.5 6.5 5.6 6.2 6.5 6.5 6.5 6.5 6.5 6.5 6.5 6.5 6.5 6.5 6.5 6.5 6.5
4.3 3.5 2.7 2.1 1.6 0.7 -0.5 -1.0 -1.3 -1.3 0.5 0.7 1.5 3.2 1.9 1.4 6.5 6.5 6.3 6.5 6.1 6.5 6.5 6.5 6.5 6.5 6.5 6.5 6.5 6.5 6.5 6.3 5.5 6.5 6.5 6.5 6.5 6.5 6.5 6.5 6.5 6.5 6.5 6.5 6.5 6.5 6.5
4.2 3.3 2.5 1.8 1.0 0.0 -0.1 -0.8 -1.2 -1.4 -0.3 0.6 1.3 6.5 3.1 0.8 1.7 6.2 6.5 6.5 6.5 6.0 6.4 6.0 6.5 6.2 6.5 6.5 6.5 6.5 6.5 6.4 5.9 6.0 3.7 4.8 6.5 6.5 6.5 6.5 6.5 6.5 6.5 6.5 6.5 6.5 6.5
3.7 3.0 2.0 0.8 -0.0 -0.2 -0.6 -0.7 -1.3 -1.4 -0.6 0.8 0.4 5.3 4.3 6.5 6.0 6.5 6.4 6.5 6.5 6.5 6.2 5.2 6.5 6.5 6.5 6.5 6.5 6.5 6.5 6.5 6.1 5.3 5.5 6.5 6.5 6.5 6.5 6.5 6.5 6.5 6.5 6.5 6.5 6.5 6.5
3.3 2.4 0.9 -0.0 -0.4 -1.1 -0.9 -0.9 -1.3 -1.3 -0.5 1.7 2.2 3.7 2.3 4.7 3.4 6.4 6.5 6.5 6.5 6.5 6.5 6.5 6.5 6.5 6.5 6.5 6.5 6.5 6.5 6.5 6.5 6.3 6.5 6.4 6.5 6.5 6.5 6.5 6.5 6.5 6.5 6.5 6.5 6.5 6.5
2.5 0.8 0.0 -0.4 -0.8 -0.8 -0.4 -0.9 -1.2 -1.1 0.7 1.7 0.0 0.5 1.4 5.0 6.2 6.5 6.5 6.5 6.5 6.4 6.0 5.5 6.2 6.5 6.5 6.5 4.9 3.9 3.5 4.1 5.6 6.5 6.5 6.5 6.5 6.5 6.5 6.5 6.5 6.5 6.5 6.5 6.5 6.5 6.5
1.5 0.4 -0.2 -0.5 0.1 0.5 -0.3 -0.9 -1.1 -1.1 0.2 0.9 -0.1 0.3 0.9 6.5 6.5 6.5 6.5 6.2 6.5 6.4 6.4 6.0 5.0 6.3 6.2 2.9 3.2 3.2 3.3 4.5 5.4 5.9 5.5 6.5 6.5 6.5 6.5 6.5 6.5 6.5 6.5 6.5 6.5 6.5 6.5
1.7 0.8 0.9 1.3 0.9 0.3 -0.3 -0.8 -1.2 -1.1 -1.2 0.8 -0.9 1.0 0.4 6.5 5.2 6.4 6.3 6.3 5.1 4.5 6.0 5.9 4.5 3.5 2.3 2.5 6.5 6.5 6.5 6.5 6.5 6.5 6.5 6.2 6.5 6.5 6.5 6.5 6.5 6.5 6.5 6.5 6.5 6.5 6.5
2.4 2.2 1.7 1.0 0.6 0.1 -0.2 -0.9 -1.5 -1.3 -0.5 0.2 -0.2 -1.2 0.5 3.6 6.0 3.7 5.7 5.5 6.5 6.5 6.5 6.1 5.3 2.7 1.4 4.7 6.5 6.5 6.5 6.5 6.5 6.5 6.4 6.5 6.5 6.5 6.5 6.5 6.5 6.5 6.5 5.5 6.1 6.5 5.6
2.3 1.9 1.4 1.1 1.0 0.5 -0.4 -1.2 -1.7 -1.3 -0.4 1.5 -0.3 -0.7 0.8 1.9 4.0 3.2 5.2 5.4 2.8 4.7 6.5 5.1 5.4 5.1 2.6 6.5 6.5 6.5 6.5 6.5 6.5 6.5 6.5 6.5 6.5 6.5 6.5 6.5 6.5 6.5 6.2 5.6 6.5 6.5 4.6
2.0 1.5 1.4 1.3 0.9 0.1 -0.6 -1.5 -1.5 -0.8 0.4 1.2 0.2 -0.2 1.6 1.3 3.4 3.8 3.6 1.6 3.0 2.6 6.5 4.1 5.2 2.8 4.7 6.5 6.5 6.5 6.5 6.5 6.5 6.5 6.5 6.5 6.5 6.5 6.5 6.5 6.5 5.0 6.4 6.5 5.5 2.8 1.4
1.8 1.4 1.2 1.1 -0.1 -1.2 -2.2 -2.3 -2.3 -1.1 0.2 2.8 3.3 0.2 -0.9 0.2 3.0 2.2 2.5 2.0 2.9 2.1 0.5 2.2 3.8 3.9 2.1 6.5 6.5 6.5 6.5 6.5 6.5 6.5 6.5 6.5 6.5 6.5 6.5 6.5 5.3 4.5 5.3 3.1 2.6 2.5 1.1
Wind_Speed
21 20 19 18 16 16 16 19 19 18 18 18 18 20 17 17 15 14 13 13 12 11 9 8 7 8 5 2 9 2 7 16 11 8 9 6 5 5 5 6 5 4 3 3 5 7 6
22 21 21 19 18 17 18 18 18 18 18 18 18 17 15 14 13 14 12 12 11 10 8 7 6 6 2 4 3 8 11 7 8 7 8 8 8 7 4 3 5 6 3 3 4 6 5
23 21 22 21 19 18 17 18 18 18 18 17 16 16 13 12 12 13 12 11 9 8 7 6 5 2 3 12 3 4 8 7 7 8 7 7 5 6 4 2 3 4 5 5 6 3 4
23 21 20 19 20 19 19 19 17 18 17 17 14 14 12 11 12 12 10 8 7 5 6 5 5 3 7 6 8 7 6 4 6 7 4 3 8 4 3 2 6 6 5 4 3 2 3
24 23 21 20 19 20 19 18 16 19 17 16 13 13 11 12 12 11 7 6 5 4 5 4 3 3 8 9 4 3 6 2 2 4 5 3 6 4 5 5 5 6 3 2 1 3 3
26 25 23 21 20 19 19 18 16 18 16 16 11 12 12 12 10 8 5 3 4 4 5 4 4 2 5 2 4 4 1 1 2 1 2 5 5 4 4 5 4 5 3 1 4 1 12
28 26 24 22 20 20 19 18 18 18 16 15 12 11 10 9 10 11 7 2 2 2 4 7 2 3 3 7 4 4 3 2 4 7 2 5 8 4 3 4 4 4 4 3 3 4 8
29 27 25 22 21 20 18 17 19 17 16 13 11 8 7 10 12 15 2 3 4 3 4 9 5 7 6 2 3 2 2 3 5 3 1 7 4 2 3 3 5 5 6 4 3 4 9
30 28 26 23 21 20 18 18 18 16 15 10 9 6 10 13 14 7 5 7 2 2 1 4 5 4 3 6 4 2 2 2 2 3 5 5 2 2 1 5 6 4 5 3 5 10 6
31 29 26 24 22 20 17 16 16 16 14 9 8 8 16 19 4 4 5 5 4 5 4 5 1 4 2 4 4 2 1 4 5 5 5 4 3 4 5 6 4 3 1 5 8 4 4
33 30 27 24 22 20 18 16 16 15 13 10 8 14 24 18 3 3 2 3 4 4 4 4 3 2 2 4 5 2 3 5 4 4 5 3 2 5 7 1 3 3 6 6 3 5 5
33 30 28 25 23 20 18 18 17 14 13 12 11 17 20 5 3 6 5 4 4 6 3 2 2 1 3 4 2 3 6 8 4 6 6 3 2 4 1 3 2 4 6 6 4 3 2
32 30 27 25 22 20 18 18 17 14 13 13 13 21 14 3 3 4 2 4 5 4 1 3 3 2 3 5 5 4 5 6 3 5 4 6 4 5 2 3 3 6 5 3 3 3 4
33 30 27 25 21 19 18 18 16 13 14 12 14 21 10 5 7 7 3 6 1 3 5 1 3 3 4 3 4 5 3 3 5 5 3 4 5 3 4 2 4 3 5 5 6 3 3
35 31 28 25 22 19 18 18 14 13 13 14 20 3 4 3 9 3 6 4 6 6 3 5 4 4 1 2 5 4 3 2 1 2 5 4 1 3 2 1 3 2 3 3 7 3 3
34 31 27 25 22 19 19 17 13 14 16 27 4 4 3 5 2 4 5 4 3 4 2 3 4 3 4 3 3 3 1 1 2 2 2 5 4 2 3 2 5 2 5 3 3 3 2
33 30 28 23 20 18 19 16 14 16 19 25 2 4 3 6 3 5 4 5 5 6 4 3 5 4 3 4 3 2 2 1 1 3 3 3 4 4 1 3 2 2 2 6 5 3 4
29 29 27 24 20 18 19 17 16 16 16 6 3 3 3 2 4 1 4 4 4 4 1 2 4 3 4 3 4 3 5 2 3 1 3 1 5 2 2 2 2 1 3 4 4 3 1
28 27 25 23 20 20 19 17 17 19 26 5 4 2 2 5 4 2 3 2 3 3 2 2 3 3 3 4 5 2 3 1 3 1 5 4 2 3 6 5 4 2 3 4 6 3 4
27 26 25 22 20 20 18 17 18 21 25 4 4 2 4 4 0 8 4 3 4 2 1 3 4 4 4 3 5 5 3 2 2 3 7 6 3 5 6 4 2 3 4 4 5 3 3
24 23 22 22 20 19 17 17 17 17 16 3 2 4 4 3 2 5 5 2 3 2 2 5 4 3 5 4 3 3 2 2 4 2 4 4 4 2 2 4 2 1 4 6 6 5 6
23 22 23 21 19 17 18 16 15 14 13 3 5 4 3 1 6 7 5 7 6 1 2 1 5 2 2 5 6 8 6 3 4 4 3 3 3 0 0 4 5 3 5 6 4 4 7
22 22 21 19 18 16 15 14 14 20 10 3 1 3 5 4 4 6 6 6 8 5 3 2 6 5 4 1 4 5 6 7 4 5 3 3 5 3 4 3 5 6 8 9 5 4 6
21 20 19 17 15 13 13 14 15 18 11 3 3 4 4 2 3 6 7 5 6 4 7 2 4 5 1 8 7 6 10 11 11 8 3 4 4 3 2 3 2 6 2 4 5 4 6
19 18 17 15 14 12 12 12 13 17 13 2 3 4 4 2 3 4 6 6 6 5 4 3 5 2 9 4 5 5 5 6 5 6 7 4 4 3 4 3 5 5 5 7 8 8 9
17 17 17 15 13 12 10 10 10 14 16 2 1 3 4 6 5 6 5 4 5 4 4 3 4 4 6 3 4 4 3 4 3 2 4 5 5 4 3 4 6 7 3 4 3 5 8
17 17 16 15 12 12 10 10 10 16 19 3 2 3 4 4 2 5 4 6 6 4 4 3 4 1 3 3 3 3 3 2 3 4 2 3 3 4 2 3 8 7 2 2 5 7 6
16 16 15 13 11 13 11 12 8 14 16 4 2 3 4 3 1 2 3 6 4 3 5 5 4 3 3 4 3 4 3 5 2 4 6 7 6 4 3 2 8 6 3 7 6 1 6
16 15 14 12 10 12 14 12 8 10 8 14 2 3 2 4 3 2 3 2 2 6 6 0 4 4 5 4 1 4 2 2 2 3 2 2 6 4 9 6 4 6 4 3 2 3 5
Wind_Direction
235 242 226 230 238 246 258 268 274 279 284 289 290 287 287 284 283 278 272 267 266 266 271 284 306 308 328 261 251 306 95 140 134 145 162 162 159 178 195 194 141 206 315 15 133 110 106
227 241 228 233 237 246 257 262 270 277 282 287 289 286 286 281 279 270 264 261 260 262 272 285 292 304 259 267 219 142 118 136 149 149 165 170 204 198 204 186 175 177 99 36 28 129 99
225 230 226 232 239 245 252 261 264 276 280 286 286 282 279 277 269 262 256 252 251 257 266 271 269 263 266 238 176 163 161 193 175 175 171 201 188 156 157 123 112 110 75 22 22 30 90
222 221 223 227 235 245 251 259 263 275 279 280 280 277 274 269 258 252 246 238 243 255 265 264 256 239 248 248 252 272 166 225 192 209 196 247 161 192 189 93 28 65 49 93 289 41 32
217 215 220 225 234 243 250 257 261 271 277 276 276 273 271 259 243 236 227 225 236 257 253 225 180 221 269 310 265 282 183 216 190 166 203 78 127 140 65 99 47 20 160 136 12 51 104
212 214 217 221 230 241 250 257 264 269 272 273 275 269 264 250 228 208 190 174 230 232 231 207 253 299 268 323 306 320 294 16 88 14 49 58 57 74 42 70 179 197 152 132 186 27 47
211 211 218 221 227 237 247 253 262 265 267 268 276 267 257 226 194 168 139 135 83 248 228 197 200 257 282 283 286 4 334 24 30 43 54 9 70 113 202 189 165 170 124 158 355 62 73
207 209 214 219 227 233 243 250 258 262 263 263 269 259 232 185 162 163 198 229 220 195 295 220 248 276 249 233 340 317 77 73 71 127 240 33 83 213 172 104 102 86 103 84 128 23 89
206 207 208 214 224 230 237 245 253 254 262 264 254 231 178 162 143 155 235 235 258 43 155 286 192 202 240 138 193 197 92 115 102 72 49 118 134 54 83 50 77 61 125 199 135 98 94
203 202 206 210 219 225 232 240 248 251 258 254 229 196 157 140 120 183 228 238 268 157 69 294 320 295 104 132 32 354 331 145 43 126 108 96 9 135 68 68 91 80 102 102 141 92 150
202 198 200 206 215 222 225 237 244 251 252 241 195 185 164 163 312 215 238 282 157 60 81 249 263 251 35 134 162 23 331 36 108 103 95 259 63 73 63 72 79 108 99 135 105 82 103
198 197 198 199 210 217 222 231 240 245 248 228 183 179 160 235 242 246 320 92 53 47 257 200 233 147 71 34 37 339 36 44 117 73 41 50 27 49 102 62 54 135 86 50 54 80 45
199 195 195 196 203 213 214 227 233 236 237 219 179 171 168 193 226 332 110 56 41 120 306 189 157 102 76 26 33 40 32 25 101 83 24 11 346 331 36 88 41 69 63 13 8 10 221
197 191 190 193 197 207 213 221 227 229 227 200 174 166 243 249 277 354 61 54 157 240 213 119 118 79 136 139 21 19 67 50 27 78 103 123 339 7 346 104 159 93 144 153 201 189 225
192 188 187 191 193 199 210 217 216 220 212 164 139 188 271 257 227 160 74 71 211 218 201 147 63 100 146 93 117 81 61 115 30 19 131 141 292 324 39 55 119 172 57 159 109 360 77
186 182 183 187 188 192 208 210 205 212 193 152 165 179 243 322 121 70 77 214 243 223 293 129 140 134 161 150 88 84 122 301 135 68 188 188 104 41 319 81 42 131 143 65 10 134 278
183 176 175 182 185 187 206 205 202 206 191 174 98 101 265 358 72 56 147 225 276 250 207 132 169 143 159 139 108 90 160 331 13 18 70 118 96 281 23 26 164 23 50 57 106 103 158
173 172 171 173 178 187 205 202 197 196 171 134 136 109 300 45 65 5 149 193 277 283 62 98 105 103 141 122 100 116 180 242 23 260 119 51 122 125 179 275 256 151 131 123 110 203 68
166 166 166 170 175 184 201 200 192 180 178 136 109 122 346 85 138 283 266 278 248 307 352 69 110 103 75 122 102 140 153 226 3 95 154 179 21 60 355 356 345 162 111 97 104 89 196
162 162 164 165 172 190 190 198 192 195 202 96 105 101 347 51 121 140 140 257 274 234 60 71 116 85 97 71 28 148 132 28 47 85 67 91 91 153 182 198 193 171 153 137 118 118 186
156 158 156 159 178 187 188 199 196 198 186 104 64 201 177 198 287 136 141 191 200 209 60 37 47 98 143 111 65 103 109 102 41 15 49 83 122 88 65 18 334 261 188 176 187 184 176
152 153 156 167 176 180 194 190 193 174 160 91 129 128 37 70 134 119 144 206 193 173 64 10 117 91 68 145 174 193 136 174 185 41 68 10 160 27 154 3 5 285 258 215 211 203 257
145 152 157 166 175 183 187 181 186 172 175 126 207 60 108 291 112 113 193 181 203 141 38 37 155 106 67 111 95 83 86 79 100 126 108 74 132 97 262 358 339 336 223 200 196 189 161
142 152 157 164 172 171 174 175 183 185 189 129 175 108 96 224 133 178 172 173 168 195 148 55 70 94 79 119 111 59 56 67 61 44 71 123 91 71 187 22 6 240 299 224 207 216 205
142 145 150 152 154 154 158 166 177 187 185 97 158 115 128 139 168 120 141 117 96 60 72 79 357 304 142 59 60 43 351 19 7 41 30 59 110 91 143 193 295 305 199 170 177 258 192
136 140 137 136 137 135 134 131 146 170 181 110 106 117 110 124 240 140 138 164 147 120 33 77 40 67 67 78 72 129 200 222 305 14 60 59 72 108 93 144 219 239 246 174 118 290 192
134 134 131 128 135 121 103 97 122 161 181 131 124 111 96 119 239 124 159 160 127 99 108 115 150 69 46 73 83 140 229 200 199 178 213 33 13 154 127 237 289 242 191 168 103 244 163
131 126 126 126 122 99 81 64 84 149 175 197 95 120 125 115 49 69 132 129 129 127 135 183 75 336 39 72 122 202 145 220 134 189 179 170 154 200 107 69 280 167 77 162 215 253 184
121 118 126 123 91 86 72 57 50 118 148 105 151 186 136 85 143 52 72 22 288 165 127 43 161 163 170 89 61 126 163 163 147 242 47 236 190 182 184 216 232 238 235 264 178 199 212